"startDT [UTC]","vpos","CH4 [ppm]","stdev(CH4) [ppm]","CO2 [ppm]","stdev(CO2) [ppm]","H2O [ppm]","stdev(H2O)","p_LGR [torr]","T_LGR [C]","mt1_LGR [us]","mt2_LGR [us]","T_ECpre [C]","T_EC1 [C]","T_EC2 [C]","p_inlet [hPa]","p_in [hPa]","p_out [hPa]","T_inlet [C]","RH_inlet [%]","dwpt_inlet [C]","T_vent [C]","RH_vent [%]","dwpt_vent [C]","flow_vent [l min-1]","flow_inlet [l min-1]","dwpt_sample [C]","T_room [C]"
2012-11-06 00:00:00,0.0,1.9237,0.0009,404.06,0.22,84.6,33.5,138.11,28.49,24.64,36.37,0.04,-272.75,-272.75,-41,557,-930,23.0,3.6,-22.4,23.0,3.7,-22.2,5.73,2.39,-26.3,27.9
2012-11-06 00:01:00,0.0,1.9236,0.0010,404.21,0.19,77.5,35.2,138.11,28.49,24.64,36.36,0.04,-272.75,-272.75,-41,557,-930,23.0,3.6,-22.5,23.0,3.7,-22.3,5.73,2.42,-26.3,27.9
2012-11-06 00:02:00,0.0,1.9236,0.0012,404.09,0.27,81.0,40.1,138.11,28.49,24.64,36.37,0.04,-272.75,-272.75,-41,557,-931,23.0,3.6,-22.5,23.0,3.6,-22.3,5.73,2.43,-26.3,27.9
2012-11-06 00:03:00,0.0,1.9230,0.0010,403.97,0.28,93.5,34.7,138.11,28.49,24.64,36.37,0.04,-272.75,-272.75,-41,557,-930,23.0,3.6,-22.5,23.0,3.7,-22.3,5.73,2.43,-26.3,27.9
2012-11-06 00:04:00,0.0,1.9234,0.0011,404.05,0.24,77.7,40.1,138.11,28.49,24.65,36.37,0.04,-272.75,-272.75,-41,557,-931,23.0,3.6,-22.5,23.0,3.6,-22.3,5.73,2.42,-26.3,27.9
2012-11-06 00:05:00,0.0,1.9230,0.0010,404.09,0.22,84.6,34.3,138.11,28.49,24.65,36.36,0.04,-272.75,-272.75,-41,557,-931,23.0,3.6,-22.5,23.0,3.6,-22.3,5.73,2.40,-26.3,27.9
2012-11-06 00:06:00,0.0,1.9234,0.0009,404.08,0.20,88.9,39.9,138.11,28.49,24.64,36.36,0.04,-272.75,-272.75,-40,557,-930,23.0,3.6,-22.5,23.0,3.7,-22.3,5.73,2.38,-26.3,27.9
2012-11-06 00:07:00,0.0,1.9229,0.0011,403.96,0.23,75.8,38.8,138.11,28.48,24.65,36.37,0.04,-272.75,-272.75,-40,557,-931,23.0,3.6,-22.5,23.0,3.6,-22.3,5.73,2.37,-26.3,27.9
2012-11-06 00:08:00,0.0,1.9232,0.0010,404.06,0.24,80.8,34.4,138.11,28.48,24.64,36.36,0.04,-272.75,-272.75,-41,557,-930,23.0,3.6,-22.5,23.0,3.7,-22.2,5.73,2.37,-26.3,27.9
2012-11-06 00:09:00,0.0,1.9239,0.0010,404.00,0.18,79.8,34.6,138.11,28.48,24.65,36.37,0.04,-272.75,-272.75,-40,557,-931,23.0,3.6,-22.6,23.0,3.7,-22.3,5.73,2.41,-26.3,27.9
2012-11-06 00:10:00,0.0,1.9233,0.0011,404.01,0.24,86.3,40.5,138.11,28.48,24.65,36.36,0.04,-272.75,-272.75,-40,557,-931,23.0,3.6,-22.5,23.0,3.7,-22.3,5.73,2.43,-26.3,27.9
2012-11-06 00:11:00,0.0,1.9234,0.0012,403.95,0.24,81.9,36.8,138.11,28.48,24.64,36.36,0.04,-272.75,-272.75,-40,557,-930,23.0,3.6,-22.5,23.0,3.7,-22.2,5.73,2.44,-26.2,27.9
2012-11-06 00:12:00,0.0,1.9225,0.0009,403.92,0.22,89.5,43.0,138.11,28.48,24.64,36.37,0.04,-272.75,-272.75,-40,557,-931,23.0,3.6,-22.5,23.0,3.7,-22.3,5.73,2.42,-26.2,27.9
2012-11-06 00:13:00,0.0,1.9229,0.0009,404.01,0.21,84.7,35.0,138.11,28.48,24.64,36.35,0.04,-272.75,-272.75,-40,557,-931,23.0,3.6,-22.6,23.0,3.6,-22.3,5.73,2.39,-26.2,27.9
2012-11-06 00:14:00,0.0,1.9226,0.0011,403.96,0.25,91.9,38.6,138.11,28.48,24.65,36.36,0.04,-272.75,-272.75,-40,557,-931,23.0,3.6,-22.5,23.0,3.6,-22.3,5.73,2.38,-26.2,27.9
2012-11-06 00:15:00,0.0,1.9228,0.0011,403.99,0.24,83.4,33.1,138.11,28.48,24.64,36.37,0.04,-272.75,-272.75,-40,557,-931,23.0,3.6,-22.5,23.0,3.7,-22.2,5.73,2.37,-26.2,27.9
2012-11-06 00:16:00,0.0,1.9228,0.0011,403.82,0.20,80.4,32.6,138.11,28.48,24.64,36.37,0.04,-272.75,-272.75,-40,557,-930,23.0,3.6,-22.5,23.0,3.6,-22.3,5.73,2.39,-26.2,27.9
2012-11-06 00:17:00,0.0,1.9224,0.0009,403.94,0.26,87.6,40.4,138.11,28.48,24.65,36.37,0.04,-272.75,-272.75,-40,557,-931,23.0,3.6,-22.5,23.0,3.6,-22.3,5.73,2.41,-26.2,27.9
2012-11-06 00:18:00,0.0,1.9225,0.0009,403.88,0.27,90.1,37.1,138.11,28.47,24.64,36.36,0.04,-272.75,-272.75,-40,557,-931,23.0,3.6,-22.5,23.0,3.6,-22.3,5.73,2.44,-26.2,27.9
2012-11-06 00:19:00,0.0,1.9225,0.0012,403.89,0.26,82.1,39.3,138.11,28.47,24.65,36.37,0.04,-272.75,-272.75,-40,557,-931,23.0,3.6,-22.6,23.0,3.6,-22.4,5.73,2.44,-26.1,27.9
2012-11-06 00:20:00,0.0,1.9223,0.0008,403.95,0.20,92.3,35.7,138.11,28.47,24.65,36.37,0.04,-272.75,-272.75,-40,557,-930,23.0,3.5,-22.7,23.0,3.6,-22.4,5.73,2.41,-26.1,27.9
2012-11-06 00:21:00,0.0,1.9228,0.0011,403.96,0.22,93.4,33.5,138.11,28.47,24.64,36.36,0.04,-272.75,-272.75,-40,557,-931,23.0,3.5,-22.7,23.0,3.6,-22.5,5.73,2.38,-26.1,27.9
2012-11-06 00:22:00,0.0,1.9226,0.0011,403.96,0.22,93.7,42.7,138.11,28.47,24.65,36.36,0.04,-272.75,-272.75,-40,557,-930,23.0,3.5,-22.7,23.0,3.6,-22.5,5.73,2.36,-26.1,27.9
2012-11-06 00:23:00,0.0,1.9234,0.0011,404.01,0.24,90.3,37.2,138.11,28.47,24.64,36.36,0.04,-272.75,-272.75,-40,557,-931,23.0,3.5,-22.7,23.0,3.6,-22.4,5.73,2.39,-26.1,27.9
2012-11-06 00:24:00,0.0,1.9235,0.0010,404.02,0.23,103.3,38.1,138.11,28.47,24.64,36.36,0.04,-272.75,-272.75,-40,557,-931,23.0,3.5,-22.6,23.0,3.6,-22.4,5.73,2.42,-26.1,27.9
2012-11-06 00:25:00,0.0,1.9236,0.0008,404.04,0.26,97.9,37.9,138.11,28.47,24.64,36.37,0.04,-272.75,-272.75,-40,557,-930,23.0,3.5,-22.6,23.0,3.6,-22.4,5.73,2.44,-26.1,27.9
2012-11-06 00:26:00,0.0,1.9228,0.0010,404.01,0.18,92.3,42.2,138.11,28.47,24.65,36.37,0.04,-272.74,-272.75,-40,557,-931,23.0,3.5,-22.6,23.0,3.6,-22.4,5.73,2.44,-26.1,27.9
2012-11-06 00:27:00,0.0,1.9231,0.0010,404.15,0.25,97.0,42.1,138.11,28.47,24.65,36.36,0.04,-272.75,-272.75,-40,557,-931,23.0,3.5,-22.6,23.0,3.6,-22.4,5.73,2.40,-26.0,27.9
2012-11-06 00:28:00,0.0,1.9232,0.0009,404.02,0.23,93.4,37.7,138.11,28.47,24.65,36.37,0.04,-272.75,-272.75,-40,557,-931,23.0,3.6,-22.6,23.0,3.6,-22.4,5.73,2.38,-26.1,27.9
2012-11-06 00:29:00,0.0,1.9235,0.0010,404.11,0.23,87.7,40.0,138.11,28.47,24.64,36.36,0.04,-272.75,-272.75,-40,557,-931,23.0,3.5,-22.6,23.0,3.6,-22.4,5.73,2.36,-26.0,27.9
2012-11-06 00:30:00,0.0,1.9231,0.0009,404.14,0.25,102.0,40.9,138.11,28.47,24.65,36.36,0.04,-272.75,-272.75,-40,557,-931,23.0,3.5,-22.6,23.0,3.6,-22.4,5.73,2.39,-26.0,27.9
2012-11-06 00:31:00,0.0,1.9227,0.0009,404.12,0.26,92.5,37.4,138.11,28.47,24.65,36.36,0.04,-272.75,-272.75,-40,557,-930,23.0,3.5,-22.7,23.0,3.6,-22.5,5.73,2.43,-26.0,28.0
2012-11-06 00:32:00,0.0,1.9228,0.0011,403.94,0.22,94.5,37.3,138.11,28.47,24.65,36.37,0.04,-272.75,-272.75,-40,557,-931,23.0,3.5,-22.7,23.0,3.6,-22.5,5.73,2.44,-26.0,27.9
2012-11-06 00:33:00,0.0,1.9233,0.0011,404.05,0.24,91.5,40.1,138.11,28.47,24.65,36.36,0.04,-272.75,-272.75,-40,557,-931,23.0,3.5,-22.7,23.0,3.6,-22.4,5.73,2.44,-26.0,28.0
2012-11-06 00:34:00,0.0,1.9231,0.0011,404.09,0.23,98.4,41.9,138.11,28.47,24.64,36.36,0.04,-272.75,-272.75,-40,557,-930,23.0,3.5,-22.7,23.0,3.6,-22.5,5.73,2.39,-26.0,28.0
2012-11-06 00:35:00,0.0,1.9227,0.0012,404.13,0.19,101.7,39.1,138.11,28.47,24.65,36.36,0.04,-272.75,-272.75,-40,557,-931,23.0,3.5,-22.8,23.0,3.6,-22.6,5.73,2.37,-26.0,28.0
2012-11-06 00:36:00,0.0,1.9232,0.0009,404.09,0.25,94.8,33.0,138.11,28.47,24.64,36.37,0.04,-272.75,-272.75,-40,557,-931,23.0,3.5,-22.9,23.0,3.5,-22.7,5.73,2.36,-26.0,28.0
2012-11-06 00:37:00,0.0,1.9230,0.0008,404.20,0.27,100.5,36.8,138.11,28.47,24.65,36.36,0.04,-272.75,-272.75,-40,557,-930,23.0,3.4,-22.9,23.0,3.5,-22.7,5.73,2.40,-26.0,28.0
2012-11-06 00:38:00,0.0,1.9235,0.0009,404.06,0.19,109.1,35.1,138.11,28.47,24.64,36.37,0.04,-272.75,-272.75,-41,557,-931,23.0,3.5,-22.9,23.0,3.5,-22.7,5.73,2.44,-26.0,28.0
2012-11-06 00:39:00,0.0,1.9243,0.0012,404.33,0.23,101.6,37.3,138.11,28.47,24.64,36.37,0.04,-272.75,-272.75,-41,557,-931,23.0,3.5,-22.9,23.0,3.5,-22.7,5.73,2.44,-26.0,27.9
2012-11-06 00:40:00,0.0,1.9237,0.0010,404.29,0.19,103.0,40.1,138.11,28.47,24.65,36.36,0.04,-272.75,-272.75,-40,557,-930,23.0,3.4,-23.0,23.0,3.5,-22.7,5.73,2.42,-26.0,27.9
2012-11-06 00:41:00,0.0,1.9240,0.0008,404.34,0.23,95.9,35.1,138.11,28.47,24.65,36.37,0.04,-272.75,-272.75,-40,557,-931,23.0,3.4,-23.0,23.0,3.5,-22.8,5.73,2.38,-26.0,28.0
2012-11-06 00:42:00,0.0,1.9239,0.0011,404.40,0.23,103.4,42.8,138.11,28.47,24.65,36.36,0.04,-272.75,-272.75,-40,557,-931,23.0,3.4,-23.0,23.0,3.5,-22.8,5.73,2.36,-26.0,28.0
2012-11-06 00:43:00,0.0,1.9243,0.0011,404.53,0.27,96.9,39.0,138.11,28.46,24.65,36.36,0.04,-272.75,-272.75,-40,557,-930,23.0,3.4,-23.0,23.0,3.5,-22.8,5.73,2.39,-26.0,28.0
2012-11-06 00:44:00,0.0,1.9250,0.0009,404.66,0.21,104.0,40.3,138.11,28.46,24.65,36.36,0.04,-272.75,-272.75,-40,557,-931,23.0,3.4,-23.2,23.0,3.4,-23.0,5.73,2.42,-26.0,28.0
2012-11-06 00:45:00,0.0,1.9248,0.0011,404.62,0.22,94.7,36.6,138.11,28.46,24.65,36.37,0.04,-272.75,-272.75,-40,557,-931,23.0,3.3,-23.3,23.0,3.4,-23.1,5.73,2.44,-26.0,28.0
2012-11-06 00:46:00,0.0,1.9249,0.0011,404.66,0.19,98.3,38.2,138.11,28.46,24.65,36.37,0.04,-272.75,-272.75,-40,557,-931,23.0,3.3,-23.3,23.0,3.4,-23.1,5.73,2.42,-26.0,28.0
2012-11-06 00:47:00,0.0,1.9251,0.0011,404.63,0.25,98.2,44.1,138.11,28.46,24.64,36.37,0.04,-272.75,-272.75,-40,557,-931,23.0,3.3,-23.3,23.0,3.4,-23.1,5.73,2.39,-25.9,28.0
2012-11-06 00:48:00,0.0,1.9247,0.0010,404.56,0.23,107.7,40.0,138.11,28.46,24.64,36.37,0.04,-272.75,-272.75,-41,557,-931,23.0,3.3,-23.3,23.0,3.4,-23.1,5.73,2.37,-26.0,28.0
2012-11-06 00:49:00,0.0,1.9242,0.0009,404.64,0.24,110.0,37.0,138.11,28.47,24.65,36.36,0.04,-272.75,-272.75,-40,557,-930,23.0,3.3,-23.3,23.0,3.4,-23.1,5.73,2.37,-25.9,28.0
2012-11-06 00:50:00,0.0,1.9246,0.0010,404.42,0.17,103.9,38.0,138.11,28.47,24.64,36.37,0.04,-272.75,-272.75,-40,557,-931,23.1,3.4,-23.2,23.0,3.4,-23.0,5.73,2.41,-25.9,28.0
2012-11-06 00:51:00,0.0,1.9242,0.0011,404.43,0.21,98.4,39.3,138.11,28.47,24.64,36.36,0.04,-272.75,-272.75,-40,557,-931,23.0,3.4,-23.2,23.1,3.4,-23.0,5.73,2.44,-25.9,28.0
2012-11-06 00:52:00,0.0,1.9236,0.0010,404.31,0.20,99.0,41.5,138.11,28.47,24.64,36.36,0.04,-272.75,-272.75,-40,557,-931,23.1,3.4,-23.2,23.1,3.4,-22.9,5.73,2.44,-25.9,28.0
2012-11-06 00:53:00,0.0,1.9235,0.0010,404.12,0.22,92.6,36.2,138.11,28.47,24.64,36.37,0.04,-272.74,-272.75,-40,557,-931,23.1,3.4,-23.1,23.1,3.4,-22.9,5.73,2.40,-25.9,28.0
2012-11-06 00:54:00,0.0,1.9228,0.0011,404.12,0.24,92.8,37.1,138.11,28.47,24.65,36.37,0.04,-272.74,-272.75,-40,557,-931,23.1,3.4,-23.1,23.1,3.4,-22.9,5.73,2.37,-25.9,28.0
2012-11-06 00:55:00,0.0,1.9233,0.0011,404.12,0.22,100.3,31.0,138.11,28.47,24.65,36.37,0.04,-272.75,-272.75,-40,557,-930,23.1,3.4,-23.1,23.1,3.5,-22.9,5.73,2.37,-25.9,28.0
2012-11-06 00:56:00,0.0,1.9230,0.0010,404.12,0.22,107.4,33.9,138.11,28.48,24.65,36.36,0.04,-272.75,-272.75,-40,557,-931,23.1,3.4,-23.1,23.1,3.5,-22.8,5.73,2.39,-25.9,28.0
2012-11-06 00:57:00,0.0,1.9224,0.0011,403.98,0.24,99.2,42.3,138.11,28.48,24.65,36.36,0.04,-272.75,-272.75,-40,557,-931,23.1,3.4,-23.0,23.1,3.5,-22.8,5.73,2.43,-25.9,28.0
2012-11-06 00:58:00,0.0,1.9220,0.0011,403.79,0.24,104.2,37.0,138.11,28.48,24.65,36.37,0.04,-272.75,-272.75,-41,557,-930,23.1,3.4,-23.0,23.1,3.5,-22.7,5.73,2.45,-25.9,28.0
2012-11-06 00:59:00,0.0,1.9218,0.0011,403.80,0.23,99.7,33.1,138.11,28.48,24.65,36.36,0.04,-272.75,-272.75,-40,557,-931,23.1,3.4,-23.0,23.1,3.5,-22.7,5.73,2.41,-25.8,28.0
2012-11-06 01:00:00,0.0,1.9217,0.0010,403.73,0.22,102.4,41.0,138.11,28.48,24.64,36.37,0.04,-272.75,-272.75,-40,558,-930,23.1,3.4,-23.0,23.1,3.5,-22.8,5.73,2.37,-25.8,28.0
2012-11-06 01:01:00,0.0,1.9219,0.0010,403.74,0.28,106.7,40.8,138.11,28.49,24.64,36.37,0.04,-272.75,-272.75,-40,558,-930,23.1,3.4,-23.1,23.1,3.5,-22.8,5.73,2.36,-25.8,28.0
2012-11-06 01:02:00,0.0,1.9218,0.0013,403.60,0.19,96.2,36.5,138.11,28.48,24.65,36.38,0.04,-272.75,-272.75,-40,558,-931,23.1,3.4,-23.1,23.1,3.5,-22.8,5.73,2.40,-25.8,28.0
2012-11-06 01:03:00,0.0,1.9219,0.0009,403.71,0.23,100.5,39.0,138.11,28.48,24.64,36.36,0.04,-272.75,-272.75,-40,558,-930,23.1,3.4,-23.0,23.1,3.5,-22.7,5.73,2.44,-25.8,28.0
2012-11-06 01:04:00,0.0,1.9214,0.0009,403.71,0.24,104.8,41.5,138.11,28.48,24.65,36.37,0.04,-272.75,-272.75,-40,558,-930,23.1,3.4,-22.9,23.1,3.5,-22.7,5.73,2.44,-25.8,28.0
2012-11-06 01:05:00,0.0,1.9220,0.0011,403.66,0.20,103.6,33.1,138.11,28.48,24.64,36.38,0.04,-272.75,-272.75,-40,558,-930,23.1,3.4,-22.9,23.1,3.5,-22.6,5.73,2.40,-25.8,28.1
2012-11-06 01:06:00,0.0,1.9218,0.0009,403.71,0.26,96.5,40.1,138.11,28.48,24.65,36.37,0.04,-272.75,-272.75,-41,558,-930,23.1,3.4,-22.9,23.1,3.5,-22.7,5.73,2.37,-25.8,28.1
2012-11-06 01:07:00,0.0,1.9211,0.0010,403.75,0.21,111.6,40.0,138.11,28.48,24.65,36.37,0.04,-272.75,-272.75,-40,558,-930,23.1,3.4,-23.0,23.1,3.5,-22.7,5.73,2.37,-25.8,28.1
2012-11-06 01:08:00,0.0,1.9215,0.0012,403.75,0.19,102.6,35.3,138.11,28.48,24.65,36.37,0.04,-272.75,-272.75,-41,558,-930,23.1,3.4,-23.1,23.1,3.5,-22.8,5.73,2.42,-25.8,28.1
2012-11-06 01:09:00,0.0,1.9215,0.0011,403.79,0.23,104.2,38.7,138.11,28.48,24.65,36.37,0.04,-272.75,-272.75,-41,558,-930,23.1,3.4,-23.0,23.1,3.5,-22.8,5.73,2.45,-25.8,28.1
2012-11-06 01:10:00,0.0,1.9218,0.0010,403.66,0.23,109.0,35.6,138.11,28.48,24.64,36.38,0.04,-272.75,-272.75,-40,558,-930,23.1,3.4,-23.0,23.1,3.5,-22.8,5.73,2.43,-25.8,28.1
2012-11-06 01:11:00,0.0,1.9215,0.0011,403.72,0.23,108.1,31.8,138.11,28.48,24.65,36.37,0.04,-272.75,-272.75,-40,558,-931,23.1,3.4,-23.0,23.1,3.4,-22.8,5.73,2.39,-25.8,28.1
2012-11-06 01:12:00,0.0,1.9221,0.0009,403.83,0.26,120.9,33.3,138.11,28.48,24.64,36.37,0.04,-272.75,-272.75,-40,558,-930,23.2,3.4,-23.0,23.1,3.4,-22.8,5.73,2.36,-25.8,28.1
2012-11-06 01:13:00,0.0,1.9218,0.0009,403.71,0.20,108.0,39.0,138.11,28.48,24.65,36.37,0.04,-272.75,-272.75,-40,558,-930,23.2,3.4,-23.0,23.1,3.5,-22.8,5.73,2.39,-25.8,28.1
2012-11-06 01:14:00,0.0,1.9217,0.0009,403.75,0.20,111.3,39.0,138.11,28.49,24.65,36.38,0.04,-272.75,-272.75,-40,558,-931,23.2,3.4,-23.0,23.2,3.5,-22.8,5.73,2.43,-25.8,28.1
2012-11-06 01:15:00,0.0,1.9220,0.0009,403.86,0.24,113.2,37.1,138.11,28.49,24.65,36.37,0.04,-272.75,-272.75,-41,558,-931,23.2,3.4,-22.9,23.1,3.5,-22.7,5.73,2.45,-25.8,28.1
2012-11-06 01:16:00,0.0,1.9219,0.0009,403.80,0.24,120.6,44.2,138.11,28.49,24.65,36.37,0.04,-272.75,-272.75,-41,558,-930,23.2,3.4,-22.8,23.1,3.5,-22.6,5.73,2.42,-25.8,28.1
2012-11-06 01:17:00,0.0,1.9221,0.0011,403.87,0.22,117.1,37.4,138.11,28.49,24.65,36.37,0.04,-272.75,-272.75,-41,558,-931,23.2,3.4,-22.8,23.2,3.5,-22.6,5.73,2.36,-25.7,28.1
2012-11-06 01:18:00,0.0,1.9217,0.0009,403.90,0.27,112.4,42.7,138.10,28.50,24.65,36.37,0.04,-272.75,-272.75,-41,558,-930,23.2,3.5,-22.8,23.2,3.5,-22.6,5.73,2.36,-25.8,28.1
2012-11-06 01:19:00,0.0,1.9218,0.0010,403.83,0.24,109.4,41.0,138.10,28.50,24.64,36.37,0.04,-272.75,-272.75,-40,558,-930,23.2,3.4,-22.8,23.2,3.5,-22.6,5.73,2.40,-25.8,28.1
2012-11-06 01:20:00,0.0,1.9216,0.0010,403.73,0.20,107.4,36.7,138.10,28.50,24.65,36.37,0.04,-272.75,-272.75,-40,558,-931,23.2,3.4,-22.9,23.2,3.5,-22.6,5.73,2.44,-25.8,28.1
2012-11-06 01:21:00,0.0,1.9215,0.0009,403.74,0.24,109.4,34.3,138.11,28.50,24.64,36.36,0.04,-272.75,-272.75,-40,558,-930,23.2,3.4,-22.8,23.2,3.5,-22.6,5.73,2.44,-25.8,28.1
2012-11-06 01:22:00,0.0,1.9213,0.0010,403.59,0.23,101.1,35.5,138.11,28.50,24.65,36.37,0.04,-272.75,-272.75,-40,558,-930,23.2,3.5,-22.7,23.2,3.6,-22.5,5.73,2.39,-25.8,28.1
2012-11-06 01:23:00,0.0,1.9210,0.0011,403.70,0.22,108.2,39.2,138.11,28.50,24.65,36.36,0.04,-272.75,-272.75,-41,558,-931,23.2,3.5,-22.6,23.2,3.6,-22.4,5.73,2.35,-25.8,28.1
2012-11-06 01:24:00,0.0,1.9209,0.0008,403.63,0.25,107.8,37.7,138.10,28.50,24.65,36.37,0.04,-272.75,-272.75,-41,558,-930,23.2,3.5,-22.5,23.2,3.6,-22.3,5.73,2.37,-25.8,28.1
2012-11-06 01:25:00,0.0,1.9216,0.0010,403.58,0.20,107.0,37.1,138.11,28.50,24.64,36.37,0.04,-272.75,-272.75,-40,558,-930,23.2,3.6,-22.5,23.2,3.6,-22.3,5.73,2.42,-25.8,28.1
2012-11-06 01:26:00,0.0,1.9215,0.0009,403.61,0.20,108.5,33.1,138.11,28.50,24.64,36.37,0.04,-272.75,-272.75,-40,558,-931,23.2,3.5,-22.5,23.2,3.6,-22.3,5.73,2.44,-25.7,28.1
2012-11-06 01:27:00,0.0,1.9210,0.0011,403.54,0.24,108.4,45.9,138.11,28.50,24.65,36.37,0.04,-272.75,-272.75,-40,558,-930,23.2,3.5,-22.6,23.2,3.6,-22.3,5.73,2.42,-25.7,28.1
2012-11-06 01:28:00,0.0,1.9208,0.0011,403.53,0.23,110.9,37.1,138.10,28.51,24.65,36.37,0.04,-272.75,-272.75,-40,558,-930,23.2,3.5,-22.6,23.2,3.6,-22.4,5.73,2.37,-25.7,28.1
2012-11-06 01:29:00,0.0,1.9210,0.0009,403.52,0.21,120.0,41.4,138.10,28.51,24.64,36.38,0.04,-272.75,-272.75,-41,558,-931,23.2,3.5,-22.6,23.2,3.6,-22.4,5.73,2.36,-25.7,28.2
2012-11-06 01:30:00,0.0,1.9212,0.0010,403.75,0.25,114.3,35.9,138.10,28.51,24.65,36.37,0.04,-272.75,-272.75,-40,558,-930,23.2,3.5,-22.7,23.2,3.5,-22.5,5.73,2.39,-25.7,28.2
2012-11-06 01:31:00,0.0,1.9212,0.0009,403.76,0.26,108.6,36.1,138.10,28.52,24.65,36.37,0.04,-272.75,-272.75,-41,558,-930,23.2,3.5,-22.7,23.2,3.5,-22.6,5.73,2.43,-25.7,28.1
2012-11-06 01:32:00,0.0,1.9211,0.0009,403.74,0.22,102.3,39.2,138.10,28.52,24.65,36.36,0.04,-272.75,-272.75,-41,558,-931,23.2,3.5,-22.8,23.2,3.5,-22.6,5.73,2.44,-25.7,28.2
2012-11-06 01:33:00,0.0,1.9213,0.0009,403.61,0.20,113.2,40.8,138.10,28.52,24.65,36.38,0.04,-272.75,-272.75,-41,558,-930,23.2,3.4,-22.9,23.2,3.5,-22.6,5.73,2.40,-25.7,28.2
2012-11-06 01:34:00,0.0,1.9212,0.0012,403.63,0.25,112.1,35.8,138.10,28.52,24.64,36.37,0.04,-272.75,-272.75,-41,558,-930,23.2,3.4,-22.8,23.2,3.5,-22.6,5.73,2.36,-25.7,28.2
2012-11-06 01:35:00,0.0,1.9213,0.0012,403.61,0.25,116.3,36.0,138.11,28.52,24.64,36.37,0.04,-272.75,-272.75,-41,558,-931,23.3,3.4,-22.9,23.2,3.5,-22.6,5.73,2.36,-25.7,28.2
2012-11-06 01:36:00,0.0,1.9209,0.0011,403.59,0.21,109.9,36.1,138.10,28.52,24.65,36.38,0.04,-272.75,-272.75,-41,558,-930,23.3,3.4,-22.9,23.2,3.5,-22.7,5.73,2.40,-25.7,28.2
2012-11-06 01:37:00,0.0,1.9216,0.0011,403.71,0.23,123.9,37.8,138.10,28.53,24.64,36.37,0.04,-272.74,-272.75,-41,558,-930,23.3,3.4,-23.0,23.2,3.5,-22.8,5.73,2.44,-25.7,28.2
2012-11-06 01:38:00,0.0,1.9218,0.0011,403.78,0.26,120.0,40.3,138.10,28.53,24.64,36.36,0.04,-272.75,-272.75,-41,558,-931,23.3,3.4,-23.0,23.2,3.4,-22.8,5.73,2.43,-25.7,28.2
2012-11-06 01:39:00,0.0,1.9212,0.0009,403.75,0.25,112.6,36.6,138.10,28.53,24.65,36.37,0.04,-272.75,-272.75,-41,558,-930,23.3,3.4,-23.1,23.3,3.4,-22.9,5.73,2.38,-25.7,28.2
2012-11-06 01:40:00,0.0,1.9214,0.0010,403.76,0.21,110.5,37.6,138.10,28.53,24.65,36.37,0.04,-272.75,-272.75,-41,558,-930,23.3,3.4,-23.0,23.2,3.4,-22.9,5.73,2.36,-25.7,28.2
2012-11-06 01:41:00,0.0,1.9216,0.0009,403.70,0.28,109.5,39.9,138.10,28.53,24.65,36.37,0.04,-272.75,-272.75,-41,558,-930,23.3,3.4,-23.1,23.2,3.4,-22.9,5.73,2.38,-25.7,28.2
2012-11-06 01:42:00,0.0,1.9213,0.0009,403.69,0.22,107.3,38.1,138.10,28.53,24.65,36.37,0.04,-272.75,-272.75,-41,558,-931,23.3,3.3,-23.1,23.2,3.4,-22.9,5.73,2.42,-25.7,28.2
2012-11-06 01:43:00,0.0,1.9213,0.0010,403.72,0.24,120.6,34.0,138.10,28.53,24.64,36.37,0.04,-272.75,-272.75,-41,558,-930,23.3,3.3,-23.1,23.3,3.4,-22.9,5.73,2.44,-25.7,28.2
2012-11-06 01:44:00,0.0,1.9212,0.0008,403.71,0.25,114.9,40.5,138.10,28.54,24.65,36.37,0.04,-272.75,-272.75,-41,559,-930,23.3,3.3,-23.1,23.3,3.4,-22.9,5.73,2.41,-25.7,28.2
2012-11-06 01:45:00,0.0,1.9220,0.0011,403.83,0.21,120.9,34.3,138.10,28.54,24.65,36.38,0.04,-272.75,-272.75,-41,558,-930,23.3,3.3,-23.2,23.3,3.4,-23.0,5.73,2.37,-25.7,28.2
2012-11-06 01:46:00,0.0,1.9220,0.0010,403.91,0.21,101.7,37.4,138.10,28.54,24.65,36.37,0.04,-272.75,-272.75,-41,558,-930,23.3,3.3,-23.3,23.3,3.4,-23.0,5.73,2.36,-25.7,28.2
2012-11-06 01:47:00,0.0,1.9224,0.0009,403.87,0.23,110.4,38.3,138.10,28.54,24.65,36.38,0.04,-272.75,-272.74,-41,559,-930,23.3,3.3,-23.2,23.3,3.4,-23.0,5.73,2.40,-25.7,28.2
2012-11-06 01:48:00,0.0,1.9224,0.0010,403.97,0.24,105.4,41.1,138.10,28.54,24.65,36.37,0.04,-272.75,-272.75,-41,559,-931,23.3,3.3,-23.3,23.3,3.4,-23.0,5.73,2.44,-25.7,28.2
2012-11-06 01:49:00,0.0,1.9227,0.0009,404.01,0.26,111.0,33.6,138.10,28.55,24.65,36.38,0.04,-272.75,-272.75,-41,559,-930,23.3,3.3,-23.3,23.3,3.4,-23.1,5.73,2.44,-25.7,28.2
2012-11-06 01:50:00,0.0,1.9232,0.0010,404.13,0.22,110.7,38.4,138.10,28.55,24.64,36.37,0.04,-272.74,-272.75,-41,559,-930,23.3,3.3,-23.3,23.3,3.4,-23.0,5.73,2.39,-25.6,28.2
2012-11-06 01:51:00,0.0,1.9230,0.0010,404.17,0.23,115.9,37.1,138.10,28.55,24.65,36.37,0.04,-272.75,-272.75,-41,559,-930,23.3,3.3,-23.3,23.3,3.4,-23.1,5.73,2.36,-25.7,28.2
2012-11-06 01:52:00,0.0,1.9233,0.0009,404.16,0.24,120.7,41.7,138.10,28.55,24.64,36.37,0.04,-272.75,-272.75,-41,559,-930,23.3,3.2,-23.4,23.3,3.3,-23.2,5.73,2.38,-25.6,28.2
2012-11-06 01:53:00,0.0,1.9232,0.0010,404.28,0.25,105.6,36.4,138.10,28.55,24.65,36.37,0.04,-272.75,-272.75,-41,559,-930,23.3,3.2,-23.4,23.3,3.3,-23.2,5.73,2.42,-25.7,28.2
2012-11-06 01:54:00,0.0,1.9234,0.0010,404.23,0.24,114.5,38.2,138.10,28.56,24.65,36.37,0.04,-272.75,-272.75,-41,559,-930,23.3,3.2,-23.4,23.3,3.3,-23.2,5.73,2.44,-25.6,28.2
2012-11-06 01:55:00,0.0,1.9236,0.0011,404.36,0.27,118.9,38.1,138.10,28.56,24.65,36.37,0.04,-272.75,-272.75,-41,559,-930,23.3,3.2,-23.4,23.3,3.3,-23.2,5.73,2.42,-25.7,28.2
2012-11-06 01:56:00,0.0,1.9239,0.0010,404.38,0.24,108.8,39.3,138.10,28.56,24.65,36.36,0.04,-272.75,-272.75,-41,559,-931,23.3,3.2,-23.4,23.3,3.3,-23.2,5.73,2.38,-25.7,28.2
2012-11-06 01:57:00,0.0,1.9243,0.0010,404.20,0.20,108.1,33.1,138.10,28.56,24.64,36.38,0.04,-272.74,-272.75,-41,559,-930,23.3,3.2,-23.4,23.3,3.3,-23.2,5.73,2.36,-25.6,28.2
2012-11-06 01:58:00,0.0,1.9237,0.0013,404.29,0.22,120.1,31.4,138.10,28.56,24.65,36.37,0.04,-272.75,-272.75,-41,559,-930,23.3,3.2,-23.4,23.3,3.3,-23.1,5.73,2.39,-25.7,28.2
2012-11-06 01:59:00,0.0,1.9236,0.0012,404.22,0.23,115.8,31.7,138.10,28.57,24.65,36.37,0.04,-272.75,-272.75,-41,559,-931,23.3,3.2,-23.4,23.3,3.3,-23.1,5.73,2.44,-25.6,28.2
2012-11-06 02:00:00,0.0,1.9232,0.0010,404.20,0.25,111.7,33.0,138.10,28.57,24.65,36.37,0.04,-272.75,-272.75,-41,559,-930,23.3,3.2,-23.4,23.3,3.3,-23.1,5.73,2.44,-25.7,28.2
2012-11-06 02:01:00,0.0,1.9236,0.0013,404.15,0.25,108.1,31.3,138.10,28.57,24.65,36.38,0.04,-272.74,-272.75,-41,559,-930,23.3,3.3,-23.4,23.3,3.3,-23.1,5.73,2.41,-25.6,28.2
2012-11-06 02:02:00,0.0,1.9230,0.0011,404.07,0.20,108.9,43.8,138.10,28.57,24.65,36.38,0.04,-272.75,-272.75,-41,559,-930,23.3,3.3,-23.3,23.3,3.3,-23.1,5.73,2.37,-25.6,28.2
2012-11-06 02:03:00,0.0,1.9225,0.0010,404.11,0.20,113.7,37.9,138.10,28.57,24.65,36.37,0.04,-272.75,-272.75,-41,559,-931,23.3,3.3,-23.3,23.3,3.4,-23.0,5.73,2.36,-25.7,28.2
2012-11-06 02:04:00,0.0,1.9233,0.0010,404.00,0.21,117.7,31.5,138.10,28.57,24.64,36.38,0.04,-272.75,-272.75,-41,559,-930,23.3,3.3,-23.3,23.3,3.4,-23.0,5.73,2.41,-25.6,28.2
2012-11-06 02:05:00,0.0,1.9229,0.0014,404.08,0.28,110.9,42.6,138.10,28.58,24.64,36.37,0.04,-272.75,-272.75,-41,559,-930,23.3,3.3,-23.3,23.3,3.4,-23.0,5.73,2.44,-25.7,28.2
2012-11-06 02:06:00,0.0,1.9216,0.0012,403.88,0.26,116.5,35.5,138.10,28.58,24.65,36.37,0.04,-272.75,-272.75,-41,559,-930,23.3,3.3,-23.3,23.3,3.4,-23.0,5.73,2.43,-25.7,28.2
2012-11-06 02:07:00,0.0,1.9219,0.0009,403.85,0.21,121.5,36.4,138.10,28.58,24.65,36.38,0.04,-272.74,-272.75,-41,559,-930,23.3,3.3,-23.3,23.3,3.3,-23.1,5.73,2.39,-25.7,28.2
2012-11-06 02:08:00,0.0,1.9224,0.0010,403.95,0.22,111.0,29.9,138.10,28.58,24.64,36.37,0.04,-272.75,-272.75,-41,559,-930,23.3,3.3,-23.3,23.3,3.3,-23.1,5.73,2.36,-25.7,28.2
2012-11-06 02:09:00,0.0,1.9213,0.0009,403.79,0.25,111.0,36.7,138.10,28.58,24.65,36.38,0.04,-272.75,-272.75,-41,559,-930,23.3,3.3,-23.3,23.3,3.4,-23.0,5.73,2.38,-25.7,28.2
2012-11-06 02:10:00,0.0,1.9214,0.0012,403.92,0.25,111.7,41.2,138.10,28.58,24.65,36.37,0.04,-272.75,-272.75,-41,559,-930,23.3,3.3,-23.3,23.3,3.3,-23.0,5.73,2.42,-25.7,28.2
2012-11-06 02:11:00,0.0,1.9224,0.0011,403.95,0.24,111.2,36.8,138.10,28.59,24.65,36.37,0.04,-272.75,-272.75,-41,559,-930,23.3,3.3,-23.3,23.3,3.3,-23.1,5.73,2.44,-25.7,28.2
2012-11-06 02:12:00,0.0,1.9214,0.0012,403.68,0.20,104.1,42.0,138.10,28.59,24.65,36.38,0.04,-272.75,-272.75,-41,559,-930,23.3,3.3,-23.3,23.3,3.3,-23.0,5.73,2.42,-25.7,28.3
2012-11-06 02:13:00,0.0,1.9210,0.0011,403.73,0.32,107.1,39.2,138.10,28.59,24.64,36.37,0.04,-272.75,-272.75,-41,559,-930,23.3,3.3,-23.3,23.3,3.4,-23.0,5.73,2.37,-25.7,28.2
2012-11-06 02:14:00,0.0,1.9211,0.0010,403.76,0.27,121.4,41.6,138.10,28.59,24.65,36.38,0.04,-272.75,-272.75,-41,559,-930,23.3,3.3,-23.3,23.3,3.3,-23.1,5.73,2.35,-25.7,28.2
2012-11-06 02:15:00,0.0,1.9220,0.0015,404.05,0.26,124.2,30.7,138.10,28.59,24.65,36.38,0.04,-272.75,-272.75,-41,559,-930,23.3,3.3,-23.3,23.3,3.3,-23.1,5.73,2.39,-25.7,28.2
2012-11-06 02:16:00,0.0,1.9223,0.0012,404.00,0.36,110.7,43.8,138.10,28.59,24.64,36.37,0.04,-272.75,-272.75,-41,559,-930,23.3,3.2,-23.4,23.3,3.3,-23.2,5.73,2.43,-25.7,28.2
2012-11-06 02:17:00,0.0,1.9221,0.0020,403.96,0.48,110.2,35.9,138.10,28.59,24.65,36.38,0.04,-272.75,-272.75,-41,559,-930,23.3,3.2,-23.4,23.3,3.3,-23.1,5.73,2.43,-25.7,28.2